Retour au catalogue

NUSAT-38

MARIA AGNESI

ActifScienceSSO
NORAD 56202·PAYLOAD·🇦🇷 Argentina

Lancé Apr 15, 2023 depuis Vandenberg Space Force Base

Loading…

Prochains Passages (prochaines 24 heures)

TLE

FraisSource: Space-Track

Époque: Sep 14, 2026, 13:53 UTC

1 56202U 23054AA  26257.57909216  .00031167  00000-0  46753-3 0  9996
2 56202  97.2968 169.4092 0013085  90.9145 269.3608 15.54768402192372

Suivez NUSAT-38 en temps réel avec AllMySat

Download on the App Store